• In Romania
  • List of Countries
  • For 7 days
  • Water Temperature
  • Satellite Maps
  • Weather Map
  • Weather Widgets
  • user-avatar
    Login

    Hourly Weather Mendoza

    Today, 23 February, Thursday

    Time Temperature Precipitation Wind Pressure Humidity
    00:00 +30°C° 0 mm 2 mps 697 mmHg 40%
    01:00 +30°C° 0 mm 2 mps 697 mmHg 41%
    02:00 +29°C° 0 mm 2 mps 697 mmHg 42%
    03:00 +28°C° 0 mm 2 mps 697 mmHg 42%
    04:00 +28°C° 0 mm 2 mps 697 mmHg 43%
    05:00 +29°C° 0 mm 2 mps 698 mmHg 40%
    06:00 +30°C° 0 mm 1 mps 698 mmHg 38%
    07:00 +31°C° 0 mm 1 mps 698 mmHg 35%
    08:00 +32°C° 0 mm 2 mps 698 mmHg 32%
    09:00 +35°C° 0 mm 2 mps 698 mmHg 29%
    10:00 +36°C° 0 mm 3 mps 699 mmHg 26%
    11:00 +37°C° 0 mm 3 mps 698 mmHg 25%
    12:00 +38°C° 0 mm 4 mps 698 mmHg 24%
    13:00 +40°C° 0 mm 5 mps 697 mmHg 23%
    14:00 +40°C° 0.1 mm 5 mps 697 mmHg 23%
    15:00 +40°C° 0.1 mm 5 mps 697 mmHg 23%
    16:00 +40°C° 0.1 mm 5 mps 696 mmHg 23%
    17:00 +38°C° 0.1 mm 4 mps 696 mmHg 26%
    18:00 +36°C° 0.1 mm 3 mps 697 mmHg 29%
    19:00 +34°C° 0.1 mm 3 mps 697 mmHg 32%
    20:00 +34°C° 0 mm 2 mps 697 mmHg 34%
    21:00 +32°C° 0 mm 2 mps 697 mmHg 36%
    22:00 +31°C° 0 mm 2 mps 698 mmHg 38%
    23:00 +30°C° 0 mm 2 mps 697 mmHg 40%

    Tomorrow, 24 February, Friday

    Time Temperature Precipitation Wind Pressure Humidity
    00:00 +30°C° 0 mm 2 mps 697 mmHg 41%
    01:00 +29°C° 0 mm 2 mps 697 mmHg 43%
    02:00 +28°C° 0 mm 1 mps 696 mmHg 44%
    03:00 +28°C° 0 mm 1 mps 696 mmHg 45%
    04:00 +27°C° 0 mm 1 mps 696 mmHg 46%
    05:00 +28°C° 0 mm 1 mps 697 mmHg 42%
    06:00 +30°C° 0 mm 1 mps 697 mmHg 39%
    07:00 +31°C° 0 mm 1 mps 698 mmHg 35%
    08:00 +32°C° 0 mm 2 mps 698 mmHg 33%
    09:00 +35°C° 0 mm 2 mps 698 mmHg 30%
    10:00 +36°C° 0 mm 3 mps 699 mmHg 27%
    11:00 +37°C° 0 mm 4 mps 698 mmHg 26%
    12:00 +38°C° 0 mm 4 mps 698 mmHg 25%
    13:00 +40°C° 0 mm 5 mps 697 mmHg 24%
    14:00 +40°C° 0.1 mm 4 mps 697 mmHg 24%
    15:00 +40°C° 0.1 mm 4 mps 696 mmHg 24%
    16:00 +40°C° 0.1 mm 4 mps 696 mmHg 24%
    17:00 +37°C° 0.1 mm 4 mps 696 mmHg 28%
    18:00 +36°C° 0.1 mm 3 mps 696 mmHg 32%
    19:00 +34°C° 0.1 mm 2 mps 697 mmHg 36%
    20:00 +32°C° 0.3 mm 2 mps 697 mmHg 37%
    21:00 +32°C° 0.3 mm 2 mps 698 mmHg 39%
    22:00 +31°C° 0.3 mm 3 mps 698 mmHg 41%
    23:00 +30°C° 0.1 mm 2 mps 698 mmHg 42%

    Day after tomorrow, 25 February, Saturday

    Time Temperature Precipitation Wind Pressure Humidity
    00:00 +30°C° 0.1 mm 2 mps 697 mmHg 44%
    01:00 +29°C° 0.1 mm 2 mps 697 mmHg 45%
    02:00 +28°C° 0 mm 2 mps 697 mmHg 45%
    03:00 +28°C° 0 mm 2 mps 697 mmHg 46%
    04:00 +27°C° 0 mm 2 mps 696 mmHg 46%
    05:00 +28°C° 0.1 mm 2 mps 697 mmHg 44%
    06:00 +29°C° 0.1 mm 2 mps 698 mmHg 41%
    07:00 +30°C° 0.1 mm 2 mps 698 mmHg 39%
    08:00 +31°C° 0.3 mm 2 mps 699 mmHg 38%
    09:00 +32°C° 0.3 mm 2 mps 699 mmHg 36%
    10:00 +34°C° 0.3 mm 2 mps 699 mmHg 35%
    11:00 +35°C° 0.2 mm 2 mps 698 mmHg 33%
    12:00 +36°C° 0.2 mm 3 mps 698 mmHg 32%
    13:00 +37°C° 0.2 mm 3 mps 697 mmHg 30%
    14:00 +37°C° 0.2 mm 3 mps 697 mmHg 30%
    15:00 +37°C° 0.2 mm 4 mps 697 mmHg 31%
    16:00 +37°C° 0.2 mm 4 mps 696 mmHg 31%
    17:00 +35°C° 0.7 mm 3 mps 696 mmHg 36%
    18:00 +34°C° 0.7 mm 3 mps 696 mmHg 41%
    19:00 +32°C° 0.7 mm 2 mps 697 mmHg 47%
    20:00 +30°C° 1.6 mm 2 mps 697 mmHg 52%
    21:00 +29°C° 1.6 mm 3 mps 697 mmHg 57%
    22:00 +28°C° 1.6 mm 3 mps 697 mmHg 62%
    23:00 +27°C° 0.3 mm 3 mps 696 mmHg 62%

    26 February, Sunday

    Time Temperature Precipitation Wind Pressure Humidity
    00:00 +27°C° 0.3 mm 3 mps 696 mmHg 63%
    01:00 +27°C° 0.3 mm 3 mps 696 mmHg 64%
    02:00 +27°C° 0.2 mm 2 mps 695 mmHg 64%
    03:00 +26°C° 0.2 mm 2 mps 695 mmHg 64%
    04:00 +26°C° 0.2 mm 2 mps 695 mmHg 65%
    05:00 +27°C° 0.1 mm 2 mps 695 mmHg 61%
    06:00 +27°C° 0.1 mm 1 mps 696 mmHg 57%
    07:00 +28°C° 0.1 mm 1 mps 696 mmHg 54%
    08:00 +30°C° 0.2 mm 2 mps 696 mmHg 50%
    09:00 +31°C° 0.2 mm 2 mps 696 mmHg 46%
    10:00 +33°C° 0.2 mm 3 mps 696 mmHg 41%
    11:00 +34°C° 0.1 mm 3 mps 696 mmHg 40%
    12:00 +35°C° 0.1 mm 3 mps 696 mmHg 38%
    13:00 +36°C° 0.1 mm 3 mps 695 mmHg 37%
    14:00 +36°C° 1 mm 3 mps 695 mmHg 37%
    15:00 +36°C° 1 mm 2 mps 695 mmHg 38%
    16:00 +36°C° 1 mm 2 mps 694 mmHg 38%
    17:00 +34°C° 1.7 mm 3 mps 695 mmHg 43%
    18:00 +33°C° 1.7 mm 3 mps 695 mmHg 48%
    19:00 +32°C° 1.7 mm 4 mps 696 mmHg 52%
    20:00 +30°C° 1.4 mm 4 mps 696 mmHg 56%
    21:00 +29°C° 1.4 mm 4 mps 696 mmHg 59%
    22:00 +28°C° 1.4 mm 4 mps 696 mmHg 63%
    23:00 +27°C° 0.3 mm 3 mps 696 mmHg 66%

    27 February, Monday

    Time Temperature Precipitation Wind Pressure Humidity
    00:00 +27°C° 0.3 mm 3 mps 696 mmHg 69%
    01:00 +26°C° 0.3 mm 3 mps 696 mmHg 73%
    02:00 +26°C° 0 mm 3 mps 696 mmHg 71%
    03:00 +26°C° 0 mm 3 mps 696 mmHg 70%
    04:00 +26°C° 0 mm 3 mps 696 mmHg 68%
    05:00 +26°C° 0 mm 3 mps 696 mmHg 65%
    06:00 +27°C° 0 mm 3 mps 697 mmHg 62%
    07:00 +28°C° 0 mm 4 mps 697 mmHg 58%
    08:00 +29°C° 0.4 mm 4 mps 698 mmHg 54%
    09:00 +30°C° 0.4 mm 4 mps 698 mmHg 50%
    10:00 +33°C° 0.4 mm 4 mps 698 mmHg 46%
    11:00 +33°C° 0.8 mm 5 mps 697 mmHg 45%
    12:00 +34°C° 0.8 mm 5 mps 697 mmHg 44%
    13:00 +35°C° 0.8 mm 5 mps 697 mmHg 42%
    14:00 +35°C° 1.7 mm 4 mps 696 mmHg 43%
    15:00 +34°C° 1.7 mm 4 mps 696 mmHg 44%
    16:00 +34°C° 1.7 mm 4 mps 696 mmHg 45%
    17:00 +33°C° 2.2 mm 3 mps 696 mmHg 49%
    18:00 +31°C° 2.2 mm 2 mps 696 mmHg 54%
    19:00 +30°C° 2.2 mm 1 mps 697 mmHg 59%
    20:00 +29°C° 1.9 mm 1 mps 697 mmHg 61%
    21:00 +29°C° 1.9 mm 1 mps 697 mmHg 63%
    22:00 +28°C° 1.9 mm 1 mps 698 mmHg 65%
    23:00 +27°C° 1 mm 1 mps 697 mmHg 65%

    28 February, Tuesday

    Time Temperature Precipitation Wind Pressure Humidity
    00:00 +27°C° 1 mm 1 mps 697 mmHg 66%
    01:00 +26°C° 1 mm 1 mps 697 mmHg 67%
    02:00 +26°C° 0 mm 1 mps 697 mmHg 67%
    03:00 +25°C° 0 mm 1 mps 696 mmHg 67%
    04:00 +25°C° 0 mm 1 mps 696 mmHg 67%
    05:00 +26°C° 0 mm 1 mps 696 mmHg 62%
    06:00 +27°C° 0 mm 1 mps 697 mmHg 57%
    07:00 +27°C° 0 mm 1 mps 697 mmHg 53%
    08:00 +29°C° 0 mm 1 mps 697 mmHg 48%
    09:00 +30°C° 0 mm 2 mps 697 mmHg 44%
    10:00 +33°C° 0 mm 3 mps 696 mmHg 40%
    11:00 +34°C° 0 mm 3 mps 696 mmHg 38%
    12:00 +35°C° 0 mm 3 mps 695 mmHg 36%
    13:00 +36°C° 0 mm 4 mps 694 mmHg 35%
    14:00 +36°C° 0 mm 4 mps 694 mmHg 35%
    15:00 +36°C° 0 mm 4 mps 693 mmHg 35%
    16:00 +36°C° 0 mm 4 mps 693 mmHg 35%
    17:00 +35°C° 0 mm 3 mps 693 mmHg 40%
    18:00 +32°C° 0 mm 2 mps 693 mmHg 45%
    19:00 +31°C° 0 mm 2 mps 694 mmHg 50%
    20:00 +30°C° 0.1 mm 1 mps 694 mmHg 51%
    21:00 +30°C° 0.1 mm 1 mps 694 mmHg 52%
    22:00 +29°C° 0.1 mm 1 mps 694 mmHg 53%
    23:00 +29°C° 0 mm 1 mps 694 mmHg 53%
    Show more